Theta_e
310 312 324 327 326 329 330 329 328 317 311 313 318 322 326 326 326 325 327 327 331 331 327 330 332 331 326 323 325 322 325 322 323
310 310 314 324 327 329 329 329 321 315 317 319 323 325 325 326 326 325 325 326 331 328 328 329 330 330 331 331 332 332 331 329 327
312 311 311 314 316 315 319 317 319 321 322 323 325 326 327 325 325 324 323 326 322 320 321 326 329 329 328 329 330 330 331 331 331
314 314 313 313 313 314 317 321 322 324 325 325 324 323 325 326 325 324 324 323 322 323 324 323 322 321 319 320 321 321 321 322 324
316 316 316 317 318 320 321 322 324 324 323 322 323 325 326 325 323 323 322 321 321 319 319 317 315 313 312 311 311 311 311 312 313
316 316 318 319 320 321 322 323 323 323 321 321 321 321 321 320 319 319 318 320 318 314 314 314 312 309 308 308 307 307 307 307 307
317 316 318 320 321 322 323 324 323 321 320 319 319 319 317 315 315 314 313 317 318 311 310 310 309 307 305 304 304 304 304 304 304
321 320 317 320 321 323 324 324 323 322 322 322 321 318 313 310 310 310 309 314 313 307 305 306 305 304 303 303 303 302 301 301 301
326 325 322 319 321 323 324 325 323 323 323 322 320 312 310 308 307 307 306 307 309 306 305 304 303 303 302 302 302 302 301 301 300
327 327 326 319 322 322 324 325 324 323 322 322 317 310 308 307 306 305 304 304 304 304 304 303 302 301 301 301 301 300 300 299 299
325 327 327 325 322 322 324 325 324 323 322 322 315 309 308 307 306 305 304 303 303 303 302 302 301 301 300 300 300 300 299 299 299
324 326 325 325 322 321 325 325 324 323 322 322 314 309 309 308 306 305 303 303 302 302 301 301 300 300 299 299 298 298 299 299 299
322 324 326 326 323 322 326 326 325 323 322 322 312 309 309 308 306 305 303 302 302 301 301 300 299 299 298 298 298 298 298 297 298
320 321 324 328 326 325 326 327 325 323 322 322 311 310 310 309 307 304 303 302 301 301 300 299 299 299 298 298 298 298 297 297 297
323 320 322 327 326 325 327 327 326 324 322 321 311 310 311 309 307 305 303 302 302 301 300 300 299 299 298 298 298 297 297 297 296
329 328 324 326 325 323 326 327 327 324 323 321 310 310 311 310 307 306 304 303 302 301 301 300 299 299 298 298 297 297 296 296 295
332 331 330 327 325 323 326 327 327 325 322 321 310 310 309 310 308 306 305 305 303 302 301 300 299 299 298 297 297 296 296 295 295
333 331 330 329 327 325 326 327 327 327 324 322 312 310 311 309 308 306 305 305 303 302 301 300 299 298 297 297 296 295 295 294 293
331 332 329 328 328 327 326 327 327 325 323 323 317 310 311 310 309 307 306 304 302 301 301 300 299 298 297 296 295 294 293 293 292
330 329 329 328 328 328 327 327 326 327 325 325 323 313 310 310 309 308 308 305 304 301 300 299 298 297 296 295 294 293 292 292 292
Wind_Speed
7 9 13 15 13 12 10 7 2 1 5 7 7 6 7 7 7 8 9 10 10 9 6 5 9 4 4 2 2 4 4 6 2
7 9 9 12 12 11 9 6 3 6 6 6 5 5 6 6 5 6 8 10 8 7 7 5 5 5 7 6 7 7 0 1 2
9 10 10 11 10 9 8 8 8 7 5 4 3 3 2 3 4 4 4 5 3 3 1 1 0 2 3 4 1 1 2 4 6
10 11 11 12 12 11 11 11 8 6 4 2 1 2 3 2 1 1 1 3 4 1 1 2 5 7 5 3 5 6 6 5 3
10 11 11 11 12 12 11 9 6 4 2 2 3 3 2 2 1 1 2 2 4 3 4 6 7 7 4 5 6 6 7 6 5
10 10 10 11 11 10 9 7 5 3 3 3 3 3 2 2 3 3 4 3 5 5 5 6 7 7 5 5 6 6 7 7 7
11 10 10 11 11 10 8 7 5 4 3 3 2 2 3 3 4 4 4 4 7 7 5 6 6 7 5 5 5 6 6 6 6
15 13 12 12 12 11 9 7 7 5 5 4 4 4 4 4 5 5 6 6 10 8 5 4 5 5 5 5 5 5 5 6 6
17 15 13 13 12 11 9 9 8 7 6 6 6 5 5 6 6 6 6 7 9 9 6 4 4 5 5 5 6 7 7 8 8
17 18 16 14 13 12 11 11 10 9 8 6 7 6 7 7 6 6 6 7 8 8 5 4 4 5 6 6 7 7 8 8 8
19 19 19 17 15 14 13 12 11 10 9 7 8 8 7 7 6 5 5 6 7 6 6 4 4 5 7 8 8 10 10 10 11
22 21 21 18 16 16 16 14 13 12 11 9 9 8 8 7 7 6 5 5 6 6 5 4 4 6 7 8 10 11 12 13 14
26 24 22 20 19 19 18 15 15 14 12 11 10 10 9 8 8 7 6 6 6 6 6 5 6 6 6 7 9 11 13 15 15
30 28 24 23 22 23 21 18 16 15 14 13 12 11 11 10 9 8 8 7 6 6 6 7 7 7 8 9 10 13 14 15 17
31 30 28 27 26 26 25 22 19 17 16 15 14 13 13 12 11 10 10 9 9 8 9 9 9 9 10 12 13 15 16 17 18
30 29 30 30 31 29 26 25 23 21 19 17 17 15 15 15 14 13 12 11 12 11 11 11 12 12 14 15 17 18 17 18 19
31 33 31 33 32 31 31 29 27 25 23 21 18 12 17 19 18 17 15 14 15 14 14 14 15 16 17 19 20 20 20 20 19
33 33 35 33 33 34 33 32 31 29 26 24 19 8 10 12 17 20 18 17 17 16 16 17 18 20 22 22 22 22 22 21 20
36 35 34 34 35 36 36 34 32 32 29 25 27 26 17 9 8 17 20 18 18 18 18 19 20 22 24 24 23 24 22 22 22
38 36 37 37 39 37 37 37 31 35 33 31 32 29 27 23 20 12 15 17 18 19 20 21 22 25 24 24 23 24 25 25 24
Wind_Direction
146 154 156 165 146 149 155 160 182 107 129 136 135 117 96 95 86 70 77 64 67 60 69 60 62 52 75 72 8 356 35 28 51
136 143 146 154 160 160 166 172 151 133 135 134 126 115 89 87 82 75 75 65 72 69 65 77 58 48 99 77 77 58 34 331 284
134 135 140 150 161 164 162 149 139 137 137 127 127 129 98 92 89 82 65 58 8 340 306 150 126 21 108 134 173 293 91 69 83
145 140 139 142 144 144 144 145 149 157 161 162 162 145 150 138 102 55 54 3 359 4 349 316 295 292 296 280 261 272 279 277 239
158 154 151 150 150 150 153 159 162 172 177 165 147 139 166 212 238 309 339 338 283 282 287 284 283 288 300 298 298 298 292 286 280
173 167 163 162 163 163 167 175 171 174 162 152 157 166 189 227 272 295 311 294 285 289 279 272 289 308 314 309 305 301 297 297 290
184 182 179 179 177 177 182 189 182 177 174 176 199 238 261 264 272 282 288 285 283 306 292 280 289 304 321 318 314 312 310 308 304
199 195 194 193 192 194 196 200 201 204 218 237 256 262 265 271 276 280 278 261 275 308 311 300 296 310 325 327 320 316 317 318 315
210 208 208 207 206 209 210 212 217 220 236 251 265 270 282 282 278 274 265 263 275 303 316 300 304 318 322 322 322 319 317 313 310
220 216 213 213 216 219 222 226 226 235 243 251 264 275 283 281 277 273 269 267 278 290 292 300 311 313 314 317 316 314 316 317 314
228 222 218 218 221 220 227 226 233 244 251 259 264 273 277 281 275 270 265 263 268 269 274 288 303 308 311 314 311 309 316 315 315
231 225 221 220 224 221 223 228 235 245 251 258 263 266 268 270 272 266 261 251 253 259 265 273 283 293 293 303 312 316 318 314 312
237 231 226 224 227 224 222 231 238 243 250 257 258 261 264 267 266 265 250 244 244 246 256 259 287 286 287 296 306 310 314 315 314
240 236 231 226 228 225 225 232 237 241 248 252 252 257 261 262 266 255 245 244 240 252 249 261 281 281 289 292 300 308 309 309 311
240 238 231 228 230 228 227 232 235 240 245 248 248 251 255 257 257 246 238 242 245 256 258 274 278 284 295 298 303 308 307 307 308
236 235 230 229 230 229 229 232 233 235 239 243 244 246 251 253 249 244 239 244 248 257 260 272 279 287 298 300 303 305 304 304 305
235 239 234 228 231 229 230 233 234 234 235 236 239 242 245 246 244 243 241 249 251 259 264 273 281 288 297 302 303 302 301 301 299
243 240 243 237 231 233 233 235 235 236 235 237 230 218 230 229 239 239 239 249 252 258 264 272 281 288 298 303 303 301 300 298 295
250 245 243 249 241 235 235 236 241 239 236 243 240 238 244 226 236 241 243 247 251 257 262 269 278 288 298 300 298 297 296 295 293
251 246 244 246 245 240 236 237 241 242 235 239 243 238 241 244 239 245 246 248 251 256 261 270 279 287 291 292 292 292 293 293 292